User: anonymous   Login
Location: Edinburgh
(55.9500°N, 3.1600°W)
Time: 16:36:33
(UTC+01:00)
Language:

QB50P2 - Orbit

View from above orbital plane
View from above orbital plane
View from above satellite
View from above satellite

Ground track
Ground track

The orbit data is extracted from the following two-line orbital elements,

1 40032U 14033Y   19115.72038905  .00000259  00000-0  33994-4 0  9999
2 40032  97.8993  33.7409 0010646 229.1831 130.8463 14.88447019263210
Epoch (UTC): 25 April 2019 17:17:21
Eccentricity: 0.0010646
inclination: 97.8993°
perigee height: 595 km
apogee height: 610 km
right ascension of ascending node: 33.7409°
argument of perigee: 229.1831°
revolutions per day: 14.88447019
mean anomaly at epoch: 130.8463°
orbit number at epoch: 26321

The dashed part of the orbit path shows where the satellite is in the earth's shadow,  

DLR